Tracking 20232 objects as of 19-Jan-2020
HD Live streaming from Space Station
objects crossing your sky now

COSMOS 2219

Track COSMOS 2219 now!
10-day predictions
COSMOS 2219 is classified as:


NORAD ID: 22219
Int'l Code: 1992-076A
Perigee: 841.8 km
Apogee: 866.4 km
Inclination: 71.1 °
Period: 101.9 minutes
Semi major axis: 7225 km
RCS: 7.421 m2 (large)
Launch date: November 17, 1992
Source: Commonwealth of Independent States (former USSR) (CIS)
Launch site: TYURATAM MISSILE AND SPACE COMPLEX (TTMTR)
aabbcc
Your satellite tracking list
Your tracking list is empty




NASA's NSSDC Master Catalog

Two Line Element Set (TLE):
1 22219U 92076A   20018.42606422 -.00000339 +00000-0 -15438-3 0  9998
2 22219 071.0574 023.2041 0017034 017.7604 342.4110 14.13630978401792
Source of the keplerian elements: AFSPC